Location: Unspecified
(54.8312°N, 0.0000°E)
Time: 22:36:00
(UTC+00:00)

ISS - Pass Details

Date: 26 November 2019
Orbit: 412 x 421 km, 51.6° (Epoch: 05 December)

Event Time Altitude Azimuth Distance (km) Brightness Sun altitude
Rises 17:24:11 0° 215° (SW) 2,349 0.9 -13.8°
Reaches altitude 10° 17:26:39 10° 197° (SSW) 1,491 -0.5 -14.1°
Maximum altitude 17:29:06 19° 150° (SSE) 1,066 -1.9 -14.5°
Enters shadow 17:30:03 17° 127° (SE) 1,144 -1.9 -14.6°
